SCP
0 0 0 0 0 0 0 0 0 0 0 0 0 0 0 0 0 0 0 0 0 0 0 0 0 0 0 0 0 0 0 0 0 0 0 0 0 0 0 0 0 0 0 0
0 0 0 0 0 0 0 0 0 0 0 0 0 0 0 0 0 0 0 0 0 0 0 0 0 0 0 0 0 0 0 0 0 0 0 0 0 0 0 0 0 0 0 0
0 0 0 0 0 0 0 0 0 0 0 0 0 0 0 0 0 0 0 0 0 0 0 0 0 0 0 0 0 0 0 0 0 0 0 0 0 0 0 0 0 0 0 0
0 0 0 0 0 0 0 0 0 0 0 0 0 0 0 0 0 0 0 0 0 0 0 0 0 0 0 0 0 0 0 0 0 0 0 0 0 0 0 0 0 0 0 0
0 0 0 0 0 0 0 0 0 0 0 0 0 0 0 0 0 0 0 0 0 0 0 0 0 0 0 0 0 0 0 0 0 0 0 0 0 0 0 0 0 0 0 0
0 0 0 0 0 0 0 0 0 0 0 0 0 0 0 0 0 0 0 0 0 0 0 0 0 0 0 0 0 0 0 0 0 0 0 0 0 0 0 0 0 0 0 0
0 0 0 0 0 0 0 0 0 0 0 0 0 0 0 0 0 0 0 0 0 0 0 0 0 0 0 0 0 0 0 0 0 0 0 0 0 0 0 0 0 0 0 0
0 0 0 0 0 0 0 0 0 0 0 0 0 0 0 0 0 0 0 0 0 0 0 0 0 0 0 0 0 0 0 0 0 0 0 0 0 0 0 0 0 0 0 0
0 0 0 0 0 0 0 0 0 0 0 0 0 0 0 0 0 0 0 0 0 0 0 0 0 0 0 0 0 0 0 0 0 0 0 0 0 0 0 0 0 0 0 0
0 0 0 0 0 0 0 0 0 0 0 0 0 0 0 0 0 0 0 0 0 0 0 0 0 0 0 0 0 0 0 0 0 0 0 0 0 0 0 0 0 0 0 0
0 0 0 0 0 0 0 0 0 0 0 0 0 0 0 0 0 0 0 0 0 0 0 0 0 0 0 0 0 0 0 0 0 0 0 0 0 0 0 0 0 0 0 0
0 0 0 0 0 0 0 0 0 0 0 0 -0 -0 -0 -0 -0 -0 0 0 0 0 0 0 0 0 0 0 0 0 0 0 0 0 0 0 0 0 0 0 0 0 0 0
0 0 0 0 0 0 0 0 0 0 0 0 -0 -0 -0 -0 -0 0 0 0 0 0 0 0 0 0 0 0 0 0 0 0 0 0 0 0 0 0 0 0 0 0 0 0
0 0 0 0 0 0 0 0 0 0 0 0 -0 -0 -0 -0 0 0 0 0 0 0 0 0 0 0 0 0 0 0 0 0 0 0 0 0 0 0 0 0 0 0 0 0
0 0 0 0 0 0 0 0 0 0 0 0 0 0 0 0 0 0 0 0 0 0 0 0 0 0 0 0 0 0 0 0 0 0 0 0 0 0 0 0 0 0 0 0
0 0 0 0 0 0 0 0 0 0 0 0 0 0 0 0 0 0 0 0 0 0 0 0 0 0 0 0 0 0 0 0 0 0 0 0 0 0 0 0 0 0 0 0
0 0 0 0 0 0 0 0 0 0 0 0 0 0 0 0 0 0 0 0 0 0 0 0 0 0 0 0 0 0 0 0 0 0 0 0 0 0 0 0 0 0 0 0
0 0 0 0 0 0 0 0 0 0 0 0 0 0 0 0 0 0 0 0 0 0 0 0 0 0 0 0 0 0 0 0 0 0 0 0 0 0 0 0 0 0 0 0
0 0 0 0 0 0 0 0 0 0 0 0 0 0 0 0 0 0 0 0 0 0 0 0 0 0 0 0 0 0 0 0 0 0 0 0 0 0 0 0 0 0 0 0
0 0 0 0 0 0 0 0 0 0 0 0 0 0 0 0 0 0 0 0 0 0 0 0 0 0 0 0 0 0 0 0 0 0 0 0 0 0 0 0 0 0 0 0
0 0 0 0 0 0 0 0 0 0 0 0 0 0 0 0 0 0 0 0 0 0 0 0 0 0 0 0 0 0 0 0 0 0 0 0 0 0 0 0 0 0 0 0
0 0 0 0 0 0 0 0 0 0 0 0 0 0 0 0 0 0 0 0 0 0 0 0 0 0 0 0 0 0 0 0 0 0 0 0 0 0 0 0 0 0 0 0
0 0 0 0 0 0 0 0 0 0 0 0 0 0 0 0 0 0 0 0 0 0 0 0 0 0 0 0 0 0 0 0 0 0 0 0 0 0 0 0 0 0 0 0
0 0 0 0 0 0 0 0 0 0 0 0 0 0 0 0 0 0 0 0 0 0 0 0 0 0 0 0 0 0 0 0 0 0 0 0 0 0 0 0 0 0 0 0
0 0 0 0 0 0 0 0 0 0 0 0 0 0 0 0 0 0 0 0 0 0 0 0 0 0 0 0 0 0 0 0 0 0 0 0 0 0 0 0 0 0 0 0
0 0 0 0 0 0 0 0 0 0 0 0 0 0 0 0 0 0 0 0 0 0 0 0 0 0 0 0 0 0 0 0 0 0 0 0 0 0 0 0 0 0 0 0
Wind_Speed
3 4 8 10 12 6 1 3 6 4 4 6 11 16 12 9 10 11 11 11 11 11 11 6 6 6 5 5 9 12 13 12 12 10 8 8 7 6 6 6 7 8 8 7
2 11 9 5 6 7 7 9 10 8 4 7 12 22 17 12 14 14 15 14 12 12 7 6 6 6 6 7 9 12 13 12 11 9 6 5 7 6 6 5 6 6 7 7
11 3 6 8 6 6 8 8 7 8 8 8 13 20 14 12 16 17 16 14 13 14 12 9 9 8 7 7 9 10 11 12 12 12 10 9 7 6 5 4 4 4 6 7
9 7 3 5 7 8 9 6 9 10 7 6 6 13 6 8 11 14 14 12 13 14 12 10 10 10 9 7 8 10 11 12 13 14 14 15 9 6 5 4 4 5 6 7
7 4 7 11 9 8 6 5 8 8 8 9 6 11 11 6 9 9 10 11 13 14 13 13 15 12 8 8 9 11 11 12 13 13 15 14 9 7 6 6 7 6 5 6
8 4 5 6 5 10 5 2 4 5 6 13 11 11 13 6 9 9 11 11 11 11 11 11 9 9 8 8 9 11 12 11 11 12 13 14 15 13 11 8 7 5 4 4
10 12 7 4 3 5 7 6 4 6 8 8 8 11 13 8 10 12 14 14 11 9 9 9 11 13 13 13 12 12 14 12 11 12 11 12 14 13 13 9 7 6 4 3
6 7 11 9 10 9 11 12 8 6 5 5 6 12 10 9 11 11 12 11 7 7 9 12 14 15 15 15 14 13 14 12 10 11 10 9 11 9 7 7 6 5 4 4
6 6 4 8 6 8 8 11 7 4 3 6 8 9 11 8 9 11 12 11 9 9 11 13 12 11 13 14 13 13 13 12 10 10 11 9 9 9 9 7 6 5 4 5
7 6 5 4 6 9 7 6 6 9 6 8 9 9 8 7 6 9 11 12 10 9 10 11 11 10 9 10 9 10 12 12 10 10 10 9 9 10 10 8 8 6 6 5
8 8 4 5 12 13 12 9 8 6 5 6 6 9 7 7 4 7 12 12 10 11 13 13 12 12 12 11 11 10 11 13 11 10 11 12 10 10 9 8 7 6 6 5
10 7 7 10 8 9 12 13 13 8 7 6 6 11 3 3 4 8 12 10 4 7 9 10 12 13 13 13 12 11 11 12 11 10 11 11 11 10 9 8 7 6 6 5
10 7 5 4 5 8 11 14 16 10 5 7 8 11 2 4 9 10 9 4 3 8 11 12 11 11 12 12 11 10 11 13 12 12 12 11 10 9 8 7 6 6 6 5
10 8 11 10 5 6 9 13 18 17 10 11 15 17 14 10 13 13 9 2 6 10 12 12 11 11 11 11 11 11 11 12 12 11 11 10 9 8 8 7 6 6 6 5
7 8 11 16 16 12 12 13 18 22 20 13 11 16 18 10 11 12 8 5 9 11 12 13 12 11 12 12 11 11 11 11 11 12 11 9 8 7 7 7 6 6 5 5
6 7 8 14 17 19 19 19 20 23 22 22 16 19 13 9 9 8 6 9 11 12 12 12 13 14 13 13 12 12 11 10 11 11 10 8 8 7 7 6 6 6 5 4
6 5 5 8 8 7 12 19 24 21 17 18 22 21 8 8 5 4 5 10 12 12 13 14 14 13 13 12 13 12 11 11 11 11 9 8 7 7 6 6 6 5 4 3
7 4 4 7 7 4 5 6 12 15 15 16 14 9 6 4 2 2 2 5 9 11 12 12 12 12 11 11 12 12 12 11 11 10 8 7 7 7 6 6 5 4 2 3
8 4 3 5 5 6 6 3 5 7 7 13 16 13 4 1 1 0 3 0 7 9 10 10 11 13 13 13 13 14 12 11 11 9 8 7 7 7 6 6 4 2 2 2
4 4 3 5 5 4 5 4 3 3 5 9 15 13 6 5 2 0 4 5 10 12 13 13 13 13 13 12 13 15 12 11 9 8 8 7 7 7 6 5 3 2 1 2
3 4 4 4 4 6 5 1 5 2 7 4 6 7 8 6 2 5 6 8 11 13 14 14 14 12 12 12 14 14 12 9 8 9 9 8 7 6 5 4 2 2 3 4
6 4 4 3 3 5 2 3 5 6 5 4 3 5 9 10 9 9 10 10 12 13 13 14 14 12 10 11 14 14 10 8 9 10 9 7 6 5 4 4 3 3 3 4
6 6 5 6 6 4 2 3 4 3 3 0 4 8 15 12 10 11 10 11 11 12 12 12 15 14 10 8 12 14 8 9 10 9 8 6 5 4 4 4 3 3 3 3
4 3 2 4 6 3 2 1 3 3 0 2 7 11 12 13 13 13 12 11 11 11 11 12 14 14 10 9 11 11 9 9 10 8 6 5 5 4 4 3 2 2 3 4
4 2 2 5 6 4 2 2 3 4 7 11 10 9 12 17 15 13 12 11 11 11 10 10 12 13 11 10 9 8 7 9 9 7 5 4 4 3 2 2 2 3 3 4
5 7 6 6 5 4 1 5 6 6 8 11 15 13 9 11 15 13 11 10 10 10 10 11 12 12 10 9 8 6 6 7 8 6 4 3 3 2 2 3 3 6 7 11
Wind_Direction
182 200 215 212 213 224 233 270 273 273 314 308 278 279 275 264 263 261 263 261 260 257 258 262 228 197 176 157 148 147 148 145 138 134 132 127 115 107 94 90 96 101 102 99
207 241 229 215 214 230 244 260 269 286 265 278 282 280 275 251 250 249 253 254 252 254 256 233 206 196 191 170 156 151 151 151 144 137 127 117 116 104 90 91 89 92 99 99
215 242 199 196 205 220 232 235 247 263 299 286 294 286 255 240 236 244 245 241 238 240 237 218 200 201 192 179 162 152 150 147 138 130 118 114 106 102 101 98 82 77 89 89
243 244 243 223 218 209 252 219 226 244 252 264 231 281 254 229 244 248 250 240 232 232 225 208 194 196 192 175 152 145 148 145 144 141 141 143 142 140 141 131 112 91 83 89
231 204 215 231 225 195 231 216 216 227 234 253 231 266 276 212 245 253 253 242 231 226 213 203 197 191 172 154 151 149 145 148 152 151 150 145 132 120 118 114 110 96 83 83
238 207 207 223 225 203 203 263 262 235 238 254 218 229 273 209 230 240 248 244 234 224 211 204 180 149 143 150 151 153 151 153 154 147 147 144 139 136 137 134 125 112 96 80
248 229 210 183 195 186 180 200 237 224 219 246 185 215 255 221 220 222 237 243 235 219 197 177 164 163 162 163 161 160 156 154 150 144 142 144 143 144 145 144 137 129 113 101
254 250 203 197 197 190 190 190 206 225 232 270 224 235 257 242 239 242 247 251 233 202 187 182 181 175 167 164 162 162 158 151 146 142 133 131 132 131 130 131 129 121 118 122
239 263 243 210 193 178 186 208 216 253 262 275 262 278 297 267 258 259 258 258 238 208 190 184 177 170 163 161 161 160 151 142 140 134 126 124 124 123 124 119 109 110 117 113
194 254 251 214 182 218 200 179 181 208 219 240 256 254 248 272 297 299 286 270 243 206 188 175 163 153 147 144 137 139 140 136 129 126 125 123 117 117 119 114 114 112 103 97
183 224 249 199 203 200 190 200 206 211 200 204 252 255 220 213 263 314 312 288 246 200 183 169 153 140 131 126 128 129 126 123 121 118 116 116 113 111 108 108 111 109 103 100
194 222 240 227 222 203 202 203 194 207 217 212 237 260 244 239 316 337 328 309 246 170 150 141 135 133 131 129 127 128 127 122 119 117 114 113 112 109 107 107 109 110 106 98
174 213 248 259 224 199 218 216 210 216 219 220 234 263 217 292 321 333 328 313 126 123 123 125 128 132 130 126 124 124 122 119 117 116 114 113 111 109 109 112 113 109 103 91
179 215 223 230 216 193 212 212 211 214 229 237 241 263 280 308 316 318 310 205 136 132 131 133 134 131 126 123 124 122 118 119 118 116 115 114 113 115 117 116 111 104 98 87
205 245 240 248 248 239 231 222 213 217 224 235 248 258 270 286 291 291 275 183 150 145 144 146 141 133 128 124 123 124 121 119 120 117 115 114 116 115 113 109 104 97 88 81
215 259 264 263 252 243 241 235 226 224 226 233 251 265 266 269 269 271 241 183 170 163 156 149 145 141 139 136 133 128 123 120 119 117 116 119 118 113 110 107 102 91 78 65
217 247 270 277 282 243 241 229 223 222 218 219 233 243 256 270 280 263 227 194 179 169 161 157 154 148 141 140 137 131 126 120 114 114 117 119 116 110 108 104 92 81 70 51
208 228 258 283 292 276 266 259 204 211 217 213 229 238 230 261 246 209 269 198 168 161 156 149 141 132 129 126 123 118 117 115 114 115 116 117 111 106 100 92 85 77 60 35
198 211 266 284 303 297 309 326 160 170 222 208 223 237 230 134 285 145 356 347 144 137 133 128 129 130 127 125 124 117 111 112 114 116 115 112 110 107 100 92 84 66 46 9
197 210 262 297 314 335 325 316 114 103 277 215 210 225 189 151 246 301 28 64 99 111 116 118 119 120 119 122 120 115 116 117 117 114 107 102 104 106 104 100 83 57 28 343
191 215 227 253 282 286 291 303 109 160 270 320 196 186 151 168 142 94 79 79 94 104 111 115 115 114 119 121 116 114 114 112 111 106 100 96 99 104 106 98 81 45 16 359
199 198 219 212 261 281 332 123 182 239 303 347 78 110 112 105 98 93 87 89 95 102 106 112 110 106 105 113 114 110 107 107 105 102 100 98 97 98 97 85 57 32 14 351
212 198 197 202 223 248 257 239 277 279 261 294 106 120 124 116 109 105 99 98 98 104 106 107 109 103 91 92 110 111 110 111 106 102 103 105 97 79 73 65 39 14 357 340
268 197 206 272 273 276 287 322 2 2 48 106 118 126 121 117 121 117 113 108 105 103 103 107 105 101 91 84 94 108 115 112 110 109 108 102 91 72 47 33 19 356 337 323
243 194 225 268 276 291 292 99 83 76 86 94 90 95 118 124 123 120 114 110 107 102 94 95 101 102 101 99 97 103 113 114 110 107 104 96 87 76 43 9 343 329 296 294
210 185 186 233 243 209 247 122 127 121 115 117 114 103 101 119 120 115 108 106 106 101 99 99 102 107 108 107 103 105 113 116 116 110 103 96 87 59 34 358 333 327 323 327